Location: �quirre
(50.4736°N, 2.2351°E)
Time: 05:00:39
(UTC+00:00)

ERS-2 - Pass Details

Date: 07 August 2020
Orbit: 494 x 498 km, 98.6° (Epoch: 19 September)

Event Time Altitude Azimuth Distance (km) Brightness Sun altitude
Rises 03:31:13 0° 169° (S) 2,568 5.5 -8.4°
Reaches altitude 10° 03:33:17 10° 172° (S) 1,691 4.5 -8.1°
Maximum altitude 03:36:55 70° 256° (WSW) 533 2.1 -7.7°
Drops below altitude 10° 03:40:35 10° 341° (NNW) 1,709 5.1 -7.2°
Sets 03:42:41 0° 344° (NNW) 2,598 6.0 -7.0°
